Craig, CO

8:06 AM MDT on July 24, 2017 (GMT -0600)
Craig-Moffat

Weather History for KCAG - April, 2013

Change the Weather History Date:

Wednesday, April 24, 2013

  Actual Average Record
Temperature  
Mean Temperature 40 °F 45 °F  
Max Temperature 52 °F 61 °F 81 °F (2012)
Min Temperature 27 °F 29 °F 18 °F (2014)
Degree Days  
Heating Degree Days 25 20  
Month to date heating degree days 683 556  
Since 1 July heating degree days 8033 7894  
Cooling Degree Days 0 0  
Month to date cooling degree days 0 0  
Year to date cooling degree days 0 0  
Moisture  
Dew Point 15 °F    
Average Humidity 43    
Maximum Humidity 69    
Minimum Humidity 16    
Precipitation  
Precipitation 0.00 in 0.06 in 0.67 in (1999)
Month to date precipitation 2.21 1.26  
Year to date precipitation 3.92 4.25  
Sea Level Pressure  
Sea Level Pressure 30.21 in    
Wind  
Wind Speed 5 mph (SW)    
Max Wind Speed 18 mph    
Max Gust Speed 28 mph    
Visibility 10 miles    
Events      
T = Trace of Precipitation, MM = Missing Value Source: NWS Daily Summary

Daily Weather History Graph

Daily Weather History Graph

Search for Another Location

Airport or City:

Trip Planner

Search our weather history database for the weather conditions in past years. The results will help you decide how hot, cold, wet, or windy it might be!

Date:

Astronomy

Apr. 24, 2013 Rise Set
Actual Time 6:18 AM MDT 7:58 PM MDT
Civil Twilight 5:49 AM MDT 8:27 PM MDT
Nautical Twilight 5:14 AM MDT 9:03 PM MDT
Astronomical Twilight 4:36 AM MDT 9:40 PM MDT
Moon 7:05 PM MDT 5:23 AM MDT
Length of Visible Light 14h 38m
Length of Day
13h 40m
Waxing Gibbous, 98% of the Moon is Illuminated
Apr 24
Waxing Gibbous
Apr 25
Full
May 2
Last Quarter
May 9
New
May 17
First Quarter

Hourly Weather History & Observations

Time (MDT) Temp. Windchill Dew Point Humidity Pressure Visibility Wind Dir Wind Speed Gust Speed Precip Events Conditions
12:53 AM 28.0 °F 22.8 °F 17.1 °F 63% 30.20 in 10.0 mi East 4.6 mph - N/A   Clear
1:53 AM 28.9 °F 19.8 °F 17.1 °F 61% 30.19 in 10.0 mi East 10.4 mph - N/A   Scattered Clouds
2:53 AM 30.0 °F 25.2 °F 15.1 °F 54% 30.18 in 10.0 mi ESE 4.6 mph - N/A   Mostly Cloudy
3:53 AM 28.4 °F - 19.4 °F 69% 30.13 in 10.0 mi Calm Calm - N/A   Overcast
4:53 AM 28.0 °F 24.2 °F 19.9 °F 72% 30.20 in 10.0 mi South 3.5 mph - N/A   Overcast
5:53 AM 28.9 °F - 19.9 °F 69% 30.20 in 10.0 mi Calm Calm - N/A   Overcast
6:53 AM 28.0 °F 24.2 °F 19.9 °F 72% 30.19 in 10.0 mi SE 3.5 mph - N/A   Scattered Clouds
7:53 AM 32.0 °F 27.5 °F 19.9 °F 61% 30.24 in 10.0 mi ENE 4.6 mph - N/A   Clear
8:53 AM 36.0 °F - 19.0 °F 50% 30.26 in 10.0 mi Calm Calm - N/A   Clear
9:53 AM 39.0 °F 34.8 °F 19.0 °F 45% 30.25 in 10.0 mi West 5.8 mph - N/A   Clear
10:53 AM 43.0 °F - 19.9 °F 40% 30.25 in 10.0 mi Calm Calm - N/A   Mostly Cloudy
11:53 AM 45.0 °F 41.2 °F 10.0 °F 24% 30.26 in 10.0 mi West 6.9 mph - N/A   Scattered Clouds
12:53 PM 46.9 °F - 10.0 °F 22% 30.23 in 10.0 mi NNW 9.2 mph 17.3 mph N/A   Clear
1:53 PM 48.0 °F - 7.0 °F 19% 30.22 in 10.0 mi WSW 8.1 mph 17.3 mph N/A   Clear
2:53 PM 48.9 °F - 5.0 °F 17% 30.21 in 10.0 mi West 10.4 mph 17.3 mph N/A   Partly Cloudy
3:53 PM 51.1 °F - 10.9 °F 20% 30.18 in 10.0 mi SW 15.0 mph 18.4 mph N/A   Clear
4:53 PM 50.0 °F - 7.0 °F 18% 30.18 in 10.0 mi Variable 6.9 mph - N/A   Clear
5:53 PM 50.0 °F - 8.1 °F 18% 30.17 in 10.0 mi WSW 8.1 mph - N/A   Clear
6:53 PM 48.9 °F - 9.0 °F 20% 30.18 in 10.0 mi WNW 4.6 mph - N/A   Clear
7:53 PM 42.1 °F 39.2 °F 21.0 °F 43% 30.19 in 10.0 mi SSW 4.6 mph - N/A   Clear
8:53 PM 37.0 °F - 19.0 °F 48% 30.21 in 10.0 mi Calm Calm - N/A   Clear
9:53 PM 33.1 °F - 19.9 °F 59% 30.23 in 10.0 mi Calm Calm - N/A   Clear
10:53 PM 34.0 °F 31.0 °F 19.0 °F 54% 30.20 in 10.0 mi East 3.5 mph - N/A   Clear
11:53 PM 30.9 °F - 19.9 °F 64% 30.20 in 10.0 mi Calm Calm - N/A   Clear